Theta_e
303 303 305 306 301 295 297 299 295 297 298 298 294 300 295 294 289 292 296 300 304 307 309 312 315 316 316 319 320 321 321 323 322 322 324 325 326 328 329 329 330 331 332 334 335 336 337 339 339 340 341 342 343 343 344 344 345 345 345 346 346 347 347
304 304 305 304 304 301 294 294 294 300 301 297 294 289 287 285 286 287 296 298 296 298 297 309 313 312 313 316 317 319 320 322 322 322 324 325 326 327 329 330 330 331 332 333 335 336 338 339 340 341 341 343 343 343 344 344 344 344 345 345 346 347 347
301 301 303 302 303 304 302 300 301 298 292 293 290 290 288 285 285 284 291 298 298 297 298 305 309 310 311 312 315 318 319 321 321 322 324 325 326 327 327 328 330 330 331 332 334 335 338 339 341 342 342 343 344 343 344 344 344 345 346 346 347 348 349
302 298 297 293 296 301 301 302 299 301 294 288 292 292 288 289 284 285 285 294 293 302 302 306 309 310 311 313 316 316 319 321 322 322 323 324 325 325 326 328 329 330 331 332 334 335 336 338 340 342 343 344 344 344 344 345 345 346 346 347 347 347 349
297 295 295 297 295 296 296 297 294 294 294 296 294 294 293 290 284 283 285 287 292 297 305 310 311 311 312 315 317 317 318 320 322 322 323 324 324 325 326 327 329 330 331 332 334 335 337 339 340 342 343 344 344 344 343 344 344 345 346 346 347 348 349
291 294 296 302 297 296 297 296 297 296 295 296 291 289 292 292 290 285 285 286 289 296 313 313 312 312 315 317 318 319 319 321 320 321 324 324 324 324 325 327 329 329 330 332 333 335 337 338 339 340 342 343 344 343 343 344 344 345 346 347 347 348 349
295 297 300 302 303 301 298 297 300 295 294 291 286 285 290 293 296 294 288 290 290 304 313 314 315 315 319 320 321 320 320 320 321 322 324 324 323 323 325 326 328 329 330 331 332 334 335 336 337 339 340 342 343 344 343 344 344 344 347 348 349 349 349
292 296 296 299 302 300 299 297 298 298 298 297 291 292 290 291 294 292 291 291 290 301 314 316 316 319 318 318 319 319 321 322 322 322 323 323 323 323 324 325 327 328 330 331 332 332 333 334 336 338 339 341 343 345 345 344 345 345 346 349 350 350 350
287 292 294 295 299 298 297 297 298 301 299 298 295 296 295 295 294 292 289 286 289 303 314 315 315 316 316 317 319 319 320 321 322 322 323 323 323 322 323 324 325 327 329 330 331 331 332 333 336 338 339 340 341 343 345 345 345 348 348 349 350 350 351
284 285 281 287 292 293 295 298 304 306 303 300 298 297 293 290 294 294 292 288 293 300 309 311 313 313 314 315 317 320 320 320 320 320 321 322 322 322 323 323 325 326 328 329 330 331 331 333 335 337 338 339 340 342 345 346 347 348 350 350 350 351 351
281 284 288 294 301 294 298 301 303 305 304 303 298 295 292 289 290 294 293 296 299 300 306 309 311 311 311 313 315 316 317 318 319 319 320 321 322 322 322 324 325 326 327 328 330 330 331 332 334 336 337 339 340 341 343 346 347 349 350 350 348 348 346
291 292 295 297 300 297 301 303 304 305 305 304 299 296 298 297 293 289 295 299 300 300 303 309 310 311 311 313 314 315 316 317 318 318 319 324 321 321 322 323 324 325 326 328 329 329 330 332 334 335 337 339 340 341 342 344 347 347 349 347 345 345 345
295 294 294 296 305 304 304 305 305 305 305 304 302 303 300 299 297 291 297 298 300 301 305 310 311 312 312 313 315 316 316 317 317 317 318 318 320 321 322 323 324 325 326 327 329 329 330 332 333 335 336 338 340 341 341 343 346 345 347 346 345 344 343
297 300 300 301 305 304 305 305 304 305 306 305 304 304 303 302 300 297 300 299 302 304 308 311 313 314 314 315 316 316 315 315 317 317 318 318 320 321 322 323 324 325 326 328 328 329 330 331 333 335 336 338 339 340 340 341 344 346 345 345 345 344 343
297 301 306 305 305 303 303 305 305 304 304 305 305 305 305 306 302 304 303 302 302 306 310 312 313 314 314 314 314 315 314 315 317 317 318 319 319 320 322 323 324 325 326 328 328 329 330 331 333 335 337 339 340 340 340 341 342 346 347 345 345 344 343
294 298 303 305 304 304 302 302 303 303 302 301 302 303 305 303 302 302 302 299 298 302 308 313 312 312 312 312 313 315 315 316 317 316 318 318 319 320 321 323 324 325 326 327 328 329 330 331 332 335 338 340 340 340 341 341 343 346 347 346 344 343 344
290 295 302 302 296 295 294 296 301 304 304 304 306 306 309 310 305 302 299 297 300 305 312 310 310 311 312 313 314 315 316 316 316 317 318 319 319 320 321 323 325 325 326 327 329 330 330 331 332 336 340 340 339 341 341 342 344 344 344 345 344 343 344
291 295 297 297 292 286 287 296 304 307 305 303 303 302 305 307 308 302 302 305 305 308 309 309 309 310 311 313 315 317 316 316 317 318 319 320 320 321 322 323 324 325 327 328 330 331 331 333 335 339 342 341 341 343 343 343 342 342 343 344 345 345 346
293 293 294 293 286 286 296 304 309 310 309 307 306 305 305 307 309 309 308 308 308 309 309 310 311 312 314 316 316 318 319 318 318 318 320 320 320 320 322 323 325 326 327 328 329 330 331 334 338 339 339 341 342 342 343 342 342 342 343 343 343 344 345
293 291 288 284 285 293 302 306 311 314 311 309 305 302 305 307 309 308 306 307 308 309 310 312 313 313 314 316 317 318 318 319 319 320 320 320 320 321 322 324 325 326 328 328 329 330 335 336 337 338 338 341 341 341 342 341 341 341 342 343 344 344 343
291 289 286 290 294 299 302 304 306 310 304 304 301 296 297 306 309 308 307 307 308 310 311 312 313 313 314 311 312 315 316 317 319 320 320 321 321 323 324 326 327 329 330 330 331 334 335 336 337 337 338 339 340 340 340 341 342 341 340 340 342 345 345
291 289 287 288 287 288 292 300 307 313 311 310 306 305 301 305 308 310 309 308 309 309 310 311 311 311 310 307 309 315 317 319 319 320 321 322 323 324 325 328 329 330 331 332 333 335 336 336 337 338 338 339 339 338 339 340 341 341 340 339 341 343 344
293 291 287 285 288 290 295 301 308 312 313 311 306 299 295 300 309 311 310 309 310 310 310 311 311 309 304 305 309 315 317 318 320 320 321 322 323 324 326 328 328 330 330 332 335 337 336 334 336 338 339 338 337 337 338 339 340 340 340 341 341 341 343
293 288 288 287 290 293 304 304 307 311 314 308 300 290 288 301 308 309 310 310 310 311 311 310 309 307 304 306 311 317 318 319 320 321 321 321 322 324 327 329 330 331 334 334 333 333 334 335 337 338 338 336 336 337 338 339 338 339 341 342 343 343 343
296 296 289 291 294 302 307 307 309 313 311 304 293 288 293 303 306 309 310 311 312 312 311 311 307 310 313 315 317 318 319 319 320 321 322 322 324 325 327 329 338 333 333 333 332 333 335 336 337 337 337 335 335 336 337 336 336 339 341 343 344 343 342
292 291 292 291 292 297 306 310 313 313 306 294 292 298 301 305 308 309 311 312 313 313 313 312 311 314 316 318 318 317 318 318 319 320 320 322 323 326 333 336 337 334 332 332 334 335 336 336 337 337 336 334 334 335 335 335 337 339 340 341 343 343 341
292 289 289 287 286 299 311 311 308 309 299 298 299 303 308 310 311 312 312 313 314 313 312 314 314 314 315 315 316 316 317 317 318 319 320 320 321 323 325 327 333 334 332 332 334 335 336 336 336 336 335 334 334 335 334 336 338 339 340 342 344 343 342
290 289 287 287 294 299 311 310 303 305 307 305 305 308 309 310 312 312 312 313 314 315 314 314 314 314 314 314 315 316 317 318 318 319 320 320 322 323 325 328 330 335 334 334 334 335 335 335 335 336 335 334 335 335 336 339 340 341 342 344 344 343 343
294 291 293 297 299 304 311 310 305 306 310 311 310 311 310 309 310 313 312 313 315 315 314 314 313 313 314 314 316 316 317 318 318 318 319 320 321 322 323 325 331 333 333 333 333 332 333 334 335 335 336 334 335 335 337 339 341 342 343 344 343 341 342
302 302 302 306 308 308 309 313 312 310 312 314 313 313 312 312 313 313 313 314 314 315 315 313 313 313 314 315 316 317 317 317 318 320 320 320 321 323 324 326 329 333 333 332 331 331 332 334 335 337 336 336 334 336 339 341 342 343 343 343 342 341 340
300 295 305 308 309 310 311 312 313 314 314 314 315 314 314 315 315 315 316 315 316 316 315 314 313 314 315 315 316 317 317 316 317 318 318 319 320 321 322 325 331 330 331 329 329 331 331 333 334 335 335 336 338 339 340 342 343 342 343 343 343 342 341
298 299 302 304 308 309 310 310 311 313 314 313 315 317 316 316 316 317 317 317 315 315 315 315 314 315 316 315 315 316 316 317 317 318 319 320 320 322 324 326 330 329 329 328 329 330 331 332 333 334 335 336 337 339 340 342 343 342 341 341 342 342 342
299 302 305 306 308 310 309 310 312 312 312 314 314 314 314 313 314 314 314 316 316 315 316 316 315 314 315 316 316 316 316 317 318 319 320 320 321 322 324 326 329 327 328 329 329 330 331 333 333 333 335 336 337 338 339 342 344 342 341 341 342 342 342
298 301 302 306 304 302 305 309 311 312 313 313 314 313 313 313 312 312 312 313 314 316 317 316 315 314 315 316 316 316 317 318 318 319 320 321 321 323 326 328 328 328 330 329 329 330 332 333 333 333 334 336 337 337 338 342 344 341 341 340 340 339 339
296 302 304 308 308 304 304 308 311 313 315 315 314 313 312 312 313 312 312 313 314 315 316 317 316 316 316 317 317 317 318 319 320 321 321 321 323 325 327 327 327 328 329 331 331 332 332 333 333 333 334 336 337 337 338 342 342 340 340 340 339 337 337
305 307 306 308 309 310 313 313 313 315 315 314 314 313 313 313 313 315 315 315 314 315 316 317 318 318 317 318 318 318 320 321 322 323 325 326 327 328 329 328 328 329 330 331 331 331 332 333 333 334 335 336 336 337 339 341 341 340 340 340 338 336 336
311 311 310 310 311 311 313 314 315 316 318 320 314 313 314 315 317 318 318 319 318 317 316 316 318 320 319 321 321 321 321 322 324 326 329 331 330 329 329 330 329 330 330 331 332 332 333 333 335 336 336 336 337 337 337 339 341 340 340 340 338 336 335
Wind_Speed
1 2 1 0 3 1 2 1 1 2 2 7 5 2 1 2 3 1 0 3 3 5 3 4 2 1 3 1 2 2 3 5 5 7 7 8 7 7 7 8 8 9 9 9 8 8 8 8 9 9 9 9 10 11 11 13 14 13 13 12 14 14 14
1 0 1 1 1 3 5 1 3 1 2 4 3 3 2 3 2 3 1 1 4 2 3 2 1 3 3 0 2 2 3 5 8 7 6 6 7 7 6 6 5 6 7 9 9 8 9 10 9 10 10 10 9 10 11 13 13 14 13 13 14 14 14
7 5 1 4 2 1 2 1 2 1 1 0 3 3 0 0 1 2 1 1 3 5 4 1 5 5 3 2 3 4 7 7 7 8 9 7 7 9 10 10 10 9 9 9 9 11 11 10 10 9 9 9 10 11 11 13 15 14 14 12 13 13 13
4 3 4 1 4 7 1 2 1 0 2 2 1 2 3 3 2 2 3 2 3 6 5 6 6 5 3 1 4 4 4 6 5 5 5 6 8 9 9 9 9 9 10 9 10 11 12 13 11 11 10 9 10 11 12 13 13 12 11 11 11 12 12
1 1 1 0 1 1 5 6 3 2 2 1 3 1 1 2 4 3 2 2 6 5 3 3 5 3 1 1 1 2 3 4 5 5 6 7 7 8 8 8 8 9 10 10 10 10 10 10 9 9 9 10 10 10 10 12 13 13 12 12 11 12 11
1 3 3 1 2 1 1 2 1 3 0 0 1 3 2 2 2 2 3 4 6 6 1 3 3 2 3 2 2 3 3 4 5 5 5 5 6 7 8 8 8 8 9 10 10 10 9 9 9 10 10 9 10 9 9 9 10 10 11 11 11 12 11
4 6 5 1 1 1 1 3 3 1 2 4 3 1 2 1 1 4 2 1 3 1 2 2 1 3 3 2 3 2 3 4 5 6 6 5 5 7 8 8 8 8 8 9 9 10 11 10 9 9 9 9 9 9 8 7 8 10 10 11 11 11 12
6 4 1 1 1 2 2 2 2 3 2 0 3 2 3 3 0 0 1 1 3 1 2 3 2 1 1 1 1 1 3 4 6 6 7 8 8 7 7 7 7 7 7 8 9 11 12 11 10 10 9 9 8 7 7 6 7 8 8 8 9 10 11
4 6 4 3 4 5 2 1 3 1 2 2 2 4 0 0 3 3 5 3 2 1 3 3 5 6 6 5 5 2 4 5 5 7 7 7 8 6 7 9 9 9 9 10 10 11 11 11 11 9 9 9 8 8 7 6 6 5 5 6 7 9 10
3 2 2 2 4 3 4 1 5 3 4 2 2 1 1 1 1 2 2 3 7 6 3 5 5 5 5 4 4 5 2 4 7 7 8 9 7 6 8 9 9 10 9 8 10 11 11 11 10 10 10 9 8 8 8 7 5 5 4 5 5 5 3
3 2 2 3 0 2 2 4 3 6 2 2 3 4 4 3 2 1 4 3 2 4 1 4 5 4 4 5 5 5 6 6 6 6 7 8 8 7 7 8 8 8 9 10 10 11 11 12 11 10 10 10 8 7 7 7 6 4 3 2 3 4 8
2 3 2 2 1 2 1 1 3 4 4 2 3 1 1 3 5 3 2 2 1 3 2 3 4 4 3 3 4 6 6 7 7 8 8 9 8 7 7 7 9 10 10 10 10 11 12 13 13 11 9 8 8 7 7 6 5 4 1 3 4 3 7
1 3 2 1 2 1 1 1 0 3 4 4 4 0 2 2 0 5 2 2 2 3 3 2 3 3 3 5 5 5 6 7 6 6 7 8 8 8 9 9 9 9 10 11 11 11 11 12 14 14 11 9 7 6 7 6 5 3 1 2 3 5 5
3 4 1 3 7 2 2 0 0 0 1 2 3 2 2 3 2 2 2 4 7 5 2 2 4 3 2 4 4 5 5 7 6 6 7 8 8 9 9 9 9 9 10 10 11 11 11 12 13 13 12 11 9 9 8 7 5 4 3 3 5 6 7
1 3 4 3 2 4 3 1 1 2 2 3 1 2 1 2 1 0 1 1 5 3 2 2 3 3 3 3 4 5 5 6 7 7 8 9 9 10 9 9 10 10 10 10 10 10 11 11 12 11 11 10 10 9 7 7 6 4 3 4 5 6 6
1 1 2 2 4 4 3 1 2 1 2 1 1 0 1 1 2 1 2 5 4 2 2 4 4 3 3 5 7 8 8 8 7 7 8 9 10 10 10 10 10 10 10 10 10 11 11 10 10 10 10 10 10 10 7 6 7 5 4 5 6 5 6
2 2 0 3 2 1 3 5 4 3 2 1 1 2 2 3 2 0 2 6 3 4 1 4 6 6 7 6 5 7 8 8 7 8 8 9 10 10 10 10 11 10 10 10 10 11 10 10 10 11 10 10 10 9 9 8 6 6 6 5 6 7 8
1 1 0 0 1 1 4 2 1 3 1 2 2 2 3 2 4 3 4 4 3 3 3 3 5 6 7 5 6 6 6 7 9 9 8 9 10 10 10 9 10 10 9 9 10 11 11 11 10 10 9 9 10 9 10 9 8 7 8 8 8 8 8
1 1 2 1 1 6 2 3 2 2 3 2 3 5 4 3 2 1 2 3 4 6 4 4 5 6 7 6 8 10 9 6 7 9 9 10 10 11 10 11 11 10 10 10 11 12 11 10 9 8 9 8 9 10 9 10 8 7 7 9 10 11 11
2 1 2 1 3 3 4 6 3 1 1 0 1 5 5 6 6 6 3 6 5 4 5 5 5 4 7 7 7 8 9 6 7 7 9 10 10 11 10 11 12 11 11 11 12 13 11 10 10 9 9 9 9 11 11 10 11 9 7 7 6 6 7
2 1 3 5 4 4 1 2 2 4 2 2 2 3 4 6 5 6 3 3 4 4 4 5 5 5 5 4 8 6 7 8 7 7 9 10 11 10 11 10 11 10 10 11 12 10 10 10 9 9 9 9 9 10 11 11 10 10 9 8 7 7 8
4 4 1 3 3 2 5 6 4 0 1 3 4 2 5 2 4 4 3 3 5 5 5 5 3 2 5 7 6 7 8 6 7 8 8 9 9 9 9 9 10 10 10 10 9 8 10 11 10 8 8 8 9 10 11 10 10 10 9 9 9 8 7
3 2 2 3 2 6 3 3 2 1 2 6 3 4 6 4 5 6 5 5 5 5 5 6 2 4 4 7 7 9 8 7 7 8 11 10 10 9 9 10 11 11 11 10 10 9 9 11 10 9 9 8 8 8 9 10 9 10 10 8 8 8 8
2 5 2 4 4 1 1 5 2 2 3 3 3 3 4 2 4 6 5 6 6 6 5 2 0 3 6 7 8 6 6 7 10 8 10 11 11 10 10 10 10 10 9 8 9 9 10 10 10 10 9 7 8 8 8 8 9 9 8 7 7 7 8
2 4 2 2 5 3 3 3 2 2 3 3 2 5 4 3 5 5 5 6 7 5 5 3 4 6 8 8 9 9 10 10 11 10 9 10 9 10 11 11 10 8 9 7 8 9 9 8 8 8 7 7 7 8 8 8 9 9 8 7 6 7 7
3 4 2 5 5 6 5 0 7 5 2 0 5 5 2 4 5 5 6 7 7 5 7 6 7 8 8 8 8 9 10 9 10 10 11 11 10 9 9 11 9 8 8 9 9 8 6 7 8 7 6 7 7 7 7 8 9 8 8 8 7 6 6
2 2 1 3 2 1 4 8 3 0 2 6 5 1 2 5 4 4 5 7 8 4 6 7 8 8 9 8 9 9 9 9 10 11 11 12 11 11 12 12 9 8 8 9 8 8 7 8 7 8 8 9 8 7 7 8 8 8 8 7 6 5 6
3 2 2 3 5 4 7 8 5 5 8 3 5 4 1 2 5 4 4 5 7 6 7 8 7 7 7 8 8 7 8 8 9 10 11 11 9 10 11 10 10 8 8 6 6 7 7 7 6 7 6 9 8 7 7 6 7 7 5 5 6 5 5
4 4 6 5 3 4 7 6 4 5 6 3 5 5 4 2 4 4 2 5 6 5 6 6 6 7 7 7 8 7 9 9 10 11 12 11 10 11 12 12 10 8 8 7 6 7 7 7 5 5 6 8 9 9 6 6 6 6 6 6 5 4 4
2 2 5 2 2 2 5 6 4 3 1 1 3 4 3 4 5 4 4 5 6 6 3 3 5 5 6 7 9 8 9 9 10 10 11 11 9 10 10 10 9 9 9 7 5 7 8 6 6 5 6 7 9 9 7 5 5 5 6 6 3 3 1
1 2 0 2 4 2 3 4 4 3 3 3 3 2 4 5 4 4 6 7 8 7 4 5 7 8 7 7 9 8 8 9 10 10 11 12 10 10 11 10 8 10 8 8 8 8 9 8 6 6 7 6 7 8 7 5 5 4 5 5 2 2 2
3 2 2 5 3 4 4 3 3 3 3 2 3 4 4 4 4 3 6 4 6 4 6 7 6 7 7 7 8 8 8 8 9 10 11 12 11 10 8 9 7 8 8 8 8 9 8 8 7 7 6 7 7 7 7 6 5 4 2 4 4 3 2
5 4 5 5 3 4 5 3 4 5 3 1 3 2 3 3 3 5 5 4 6 4 7 5 4 6 8 8 8 8 8 9 9 9 10 11 10 10 10 9 7 8 8 8 8 8 8 7 7 7 6 6 7 8 8 7 5 3 3 3 3 2 2
2 5 4 5 1 4 5 4 4 4 4 3 3 3 3 3 3 4 4 8 5 5 6 5 5 7 8 8 7 8 8 9 10 10 10 10 10 10 8 7 8 8 8 8 9 8 7 5 6 8 8 5 5 5 6 6 4 3 3 1 2 0 2
4 6 7 6 4 3 4 4 4 4 2 2 2 3 3 4 3 3 3 5 7 7 7 3 4 6 7 9 7 7 8 9 9 9 9 10 9 9 8 9 10 10 10 10 9 9 7 6 7 8 8 7 5 5 6 6 3 2 2 2 1 2 3
3 4 5 7 4 3 1 2 4 3 4 4 3 4 4 4 5 4 4 5 6 7 6 7 4 5 6 7 6 8 9 9 9 10 9 8 8 7 6 6 8 10 11 11 11 11 9 7 8 7 7 7 6 6 4 6 3 3 3 3 2 2 3
1 2 5 7 5 2 1 1 1 1 1 1 2 3 3 4 5 4 5 6 5 6 6 7 7 3 4 6 6 7 8 9 10 10 10 8 8 8 7 7 8 9 9 9 9 8 8 8 8 7 7 7 6 6 5 5 5 4 4 4 3 3 3
Wind_Direction
8 334 277 287 123 242 258 105 239 223 176 102 89 87 45 86 48 242 224 335 309 298 324 238 256 36 263 298 279 282 298 337 16 25 13 2 349 342 339 335 333 326 330 332 330 323 317 309 305 297 294 278 256 239 230 228 226 224 212 205 210 210 211
275 198 201 4 335 126 78 81 245 126 111 114 125 210 350 59 171 255 38 224 300 30 257 325 259 281 244 202 301 293 357 9 19 7 6 349 335 323 310 305 303 309 317 323 325 317 313 309 299 294 290 286 278 258 236 231 230 225 218 210 211 212 210
276 346 33 326 311 342 178 194 198 114 268 256 320 91 240 76 271 276 325 272 257 186 248 291 231 217 251 325 338 12 11 12 6 358 344 332 334 343 340 337 334 331 331 329 326 320 315 308 299 292 286 282 279 270 247 230 229 225 218 211 212 212 207
328 356 62 254 298 329 23 72 59 322 104 157 125 206 175 124 232 57 292 34 241 209 217 192 217 216 235 283 16 17 3 11 351 331 311 326 349 341 327 320 317 316 322 326 325 321 319 317 313 305 298 288 279 272 254 239 231 227 222 218 214 213 207
12 41 338 182 164 359 332 27 341 356 8 224 96 39 73 181 170 180 161 332 275 266 241 208 212 210 207 174 96 25 13 334 323 304 318 345 335 319 308 303 304 314 322 326 323 319 313 310 305 302 300 298 292 281 260 241 230 224 218 215 210 213 207
344 240 239 152 156 167 167 147 132 186 288 66 148 253 9 72 97 196 128 235 267 269 213 265 258 189 137 190 106 30 338 330 297 297 324 331 310 295 293 300 309 317 322 321 318 314 312 313 315 317 314 307 309 303 270 248 234 227 217 213 210 212 211
269 250 263 84 242 184 188 119 6 134 110 104 91 120 273 29 23 105 154 126 275 252 297 317 215 158 145 136 98 27 316 296 300 312 311 298 275 280 296 305 311 314 316 315 312 310 311 312 310 312 315 315 312 316 302 261 235 230 221 218 211 210 210
296 326 325 39 109 112 22 355 40 50 345 215 168 173 183 139 156 67 343 228 246 287 0 8 45 72 115 53 80 339 299 300 315 317 311 303 304 304 307 304 305 312 314 315 319 321 322 323 322 320 317 314 311 312 315 301 266 250 236 227 219 216 217
340 351 349 1 330 45 83 305 312 308 301 64 159 103 138 140 216 173 125 240 291 277 350 13 28 20 19 357 331 336 319 320 318 314 304 298 299 309 316 320 322 322 325 326 322 317 316 316 316 317 319 318 315 312 312 309 296 280 265 254 237 225 222
158 196 293 294 331 296 287 288 337 350 44 2 2 287 33 67 286 129 155 253 253 275 338 5 17 14 4 347 336 325 297 285 305 309 305 302 305 316 318 320 327 325 316 309 314 316 315 315 315 317 318 318 313 309 307 302 295 289 255 245 254 266 302
177 206 209 256 131 14 45 306 11 329 356 22 99 102 88 202 206 193 233 185 299 318 311 343 339 354 341 327 333 329 323 315 307 300 303 304 313 315 311 311 309 312 320 317 313 312 312 312 315 315 318 317 315 310 309 314 309 311 0 59 77 88 91
195 183 196 205 185 147 245 23 327 335 2 8 85 109 196 162 84 318 269 208 139 264 287 294 318 325 315 306 311 322 325 320 311 304 299 306 315 316 313 320 324 320 314 310 311 312 315 317 316 317 316 312 311 314 314 312 313 316 97 162 182 132 118
239 229 235 248 106 98 147 137 345 34 350 39 88 84 184 134 183 206 265 147 194 259 231 263 278 270 281 287 295 297 287 284 293 304 315 321 324 322 322 317 314 313 313 310 309 312 314 316 318 320 323 324 322 316 309 303 304 267 189 85 85 94 103
0 358 122 177 124 115 43 336 295 277 142 125 130 134 181 184 219 208 221 191 231 242 237 261 276 279 265 280 289 294 307 313 313 312 318 322 323 322 317 314 309 305 304 305 307 310 313 318 319 319 320 322 324 323 312 300 294 276 162 172 161 153 159
2 347 44 41 68 118 126 298 291 249 204 148 168 142 215 167 79 267 215 206 275 265 215 266 279 303 312 310 309 309 306 319 320 318 316 319 318 315 312 309 308 304 303 304 307 308 310 317 316 314 309 310 314 309 295 285 281 272 192 189 195 188 172
310 324 60 58 74 68 82 332 308 329 41 63 313 88 192 129 255 312 350 335 281 278 305 302 281 299 333 324 323 325 327 324 313 306 304 307 309 309 307 305 304 305 307 310 309 305 306 306 307 306 304 307 309 303 295 279 273 268 226 212 217 205 193
269 283 169 129 65 36 329 278 238 209 245 212 271 272 268 225 162 143 235 237 220 236 312 342 319 339 326 321 309 309 310 309 297 286 290 296 299 301 301 302 301 300 302 302 298 295 296 296 296 294 295 302 304 302 300 289 265 257 248 219 196 200 207
236 286 6 32 48 342 245 236 202 156 211 209 221 268 231 222 157 201 184 217 248 287 295 276 288 306 297 290 287 273 262 284 291 283 282 289 293 295 296 293 291 291 297 296 291 286 281 279 277 281 291 296 298 296 293 288 271 254 235 218 204 203 201
241 76 59 69 237 235 243 282 253 212 237 205 215 254 244 234 252 258 280 276 267 246 236 242 257 266 281 294 290 297 291 259 251 265 281 290 294 296 298 299 297 296 296 294 291 290 286 288 291 302 307 310 307 301 293 290 281 262 234 215 205 203 206
64 60 66 110 243 240 280 283 272 206 133 98 29 303 269 223 212 187 216 241 250 268 280 276 259 270 293 299 280 265 274 256 249 270 281 288 292 294 292 293 292 296 298 294 289 287 295 306 307 307 305 308 306 303 302 294 292 287 274 254 236 212 217
194 195 160 230 300 330 307 314 259 161 213 184 169 241 282 220 198 171 208 262 277 286 269 267 298 311 312 327 304 275 258 277 269 254 271 278 281 282 284 280 282 286 287 285 286 295 300 300 299 299 301 305 304 301 298 295 292 289 287 280 259 218 210
122 135 354 348 17 296 275 238 271 275 175 134 154 101 290 282 228 199 181 233 261 272 284 292 307 340 356 320 297 291 293 278 281 288 280 281 277 276 276 280 280 286 287 290 293 294 299 302 300 298 299 305 307 306 302 296 295 286 274 271 279 277 241
93 70 151 211 198 246 211 236 238 218 174 129 131 54 292 269 203 207 184 236 253 243 258 283 37 16 328 275 271 281 284 294 297 301 297 290 286 283 280 277 285 291 293 294 297 301 302 304 310 309 304 304 301 301 299 296 296 291 283 283 290 289 285
172 133 138 246 202 227 223 218 253 227 145 103 62 352 284 256 217 209 183 222 246 255 243 211 211 226 265 275 276 274 291 301 296 286 286 291 293 292 288 281 269 274 288 302 304 304 305 306 307 307 303 295 293 299 300 299 298 297 294 286 289 292 286
163 160 243 314 300 266 251 220 218 152 143 79 81 231 237 241 216 217 186 223 237 234 255 188 239 225 216 249 275 301 302 305 300 295 287 279 278 284 286 281 283 290 294 289 286 291 296 299 301 296 290 285 293 301 301 299 297 295 300 299 281 265 264
168 186 176 229 241 238 181 5 153 178 119 244 209 235 204 158 219 232 203 228 246 226 234 229 223 251 261 271 282 285 286 280 279 281 282 287 293 286 277 277 283 286 288 294 295 296 296 297 300 293 284 289 295 303 301 298 296 297 295 287 276 253 248
63 53 65 13 333 268 133 124 78 128 145 230 206 217 256 202 218 210 231 214 253 205 253 244 243 259 277 277 280 284 284 286 284 286 289 290 293 296 297 298 285 282 291 297 301 307 314 311 304 299 295 297 307 312 309 297 293 288 281 279 263 239 229
154 126 142 198 211 195 191 150 180 213 211 188 174 146 240 239 205 225 229 238 229 226 221 258 274 264 271 290 281 286 285 281 281 283 283 284 289 290 287 280 283 288 289 293 302 311 310 300 293 298 300 306 315 317 301 294 283 283 273 271 264 241 235
138 195 212 249 232 205 207 196 194 205 227 184 175 174 190 206 256 196 196 255 258 227 225 249 253 281 271 261 272 276 275 280 281 282 282 287 290 288 287 292 296 301 300 308 321 310 303 298 298 308 316 315 314 311 303 303 298 303 299 288 259 258 266
252 251 202 255 302 244 248 245 222 229 315 176 163 187 236 245 233 187 215 253 264 279 230 236 273 237 260 281 287 281 277 278 280 281 286 290 291 291 295 300 307 310 313 319 316 313 312 311 317 324 321 311 309 304 298 310 320 315 315 301 273 258 250
82 265 267 214 222 238 236 241 292 271 233 235 182 201 217 253 259 254 243 243 261 258 261 233 246 270 275 273 273 275 280 281 280 283 287 290 291 292 297 299 313 315 318 321 322 323 319 322 326 321 312 308 301 300 302 309 315 317 321 315 280 286 117
150 228 250 245 275 264 260 242 272 279 262 254 224 212 225 239 265 256 270 270 264 251 257 243 238 260 270 269 273 278 280 280 284 285 287 289 295 295 294 298 304 302 307 312 316 320 317 317 320 314 307 313 312 308 307 303 297 296 320 323 313 259 211
273 300 281 271 313 307 289 266 226 234 225 258 303 278 273 274 280 283 284 234 241 221 240 256 258 272 274 265 265 274 278 283 283 283 285 288 290 296 304 304 307 299 305 312 312 312 308 310 310 311 310 319 321 314 310 312 310 313 323 333 335 350 134
285 210 242 142 131 270 279 260 229 231 239 194 242 300 309 279 273 285 303 306 288 241 252 264 264 258 272 278 276 276 276 277 281 287 290 293 298 300 299 302 304 306 311 310 307 305 301 309 314 314 310 310 319 318 311 311 307 285 300 323 330 146 128
232 246 231 209 175 196 226 207 221 226 261 191 228 257 268 282 269 253 269 294 309 308 291 246 233 258 261 274 284 285 284 283 283 283 286 294 300 305 316 320 319 320 315 313 309 314 321 322 318 312 305 310 324 338 327 315 288 257 225 262 258 145 143
246 226 218 176 158 196 230 234 225 230 220 184 225 260 252 249 262 277 265 242 253 274 274 286 267 260 276 279 284 281 289 288 289 293 295 297 296 302 312 309 308 312 313 317 320 324 324 320 312 303 303 315 326 341 332 319 279 218 223 226 230 185 156
253 207 176 187 191 216 260 268 253 253 290 191 217 246 249 272 281 258 264 283 269 261 281 290 299 284 263 289 289 283 281 286 288 290 300 312 318 323 322 319 316 315 310 307 312 317 316 311 306 306 318 323 329 343 340 324 288 239 218 218 196 160 156